Location: Newark
(46.7000°N, 60.6000°W)
Time: 20:50:55
(UTC+00:00)

Envisat - Pass Details

Date: 23 September 2020
Orbit: 764 x 766 km, 98.1° (Epoch: 20 October)

Event Time Altitude Azimuth Distance (km) Brightness Sun altitude
Rises 22:40:29 0° 215° (SW) 3,222 6.6 -8.3°
Reaches altitude 10° 22:43:53 10° 240° (WSW) 2,302 6.3 -8.8°
Maximum altitude 22:46:36 14° 272° (W) 2,014 6.6 -9.3°
Drops below altitude 10° 22:49:20 10° 305° (NW) 2,311 6.6 -9.8°
Sets 22:52:47 0° 329° (NNW) 3,243 6.9 -10.3°
